Вернуться в каталог

STARLINK-35619

АктивенСвязьVLEO
NORAD 66256·PAYLOAD·🇺🇸 United States

Запущен Oct 29, 2025 с Cape Canaveral Space Force Station

Loading…

Ближайшие Пролёты (ближайшие 24 часа)

TLE

СвежийSource: CelesTrak SupGP

Эпоха: Sep 15, 2026, 02:56 UTC

1 66256C 25245Y   26258.12270833  .00034907  00000+0  10314-2 0  2583
2 66256  53.1587 122.5285 0001307  85.0701 153.8155 15.34371186    11

Отслеживайте STARLINK-35619 в реальном времени с AllMySat

Download on the App Store